TimeEDT,TemperatureF,Dew PointF,Humidity,Sea Level PressureIn,VisibilityMPH,Wind Direction,Wind SpeedMPH,Gust SpeedMPH,PrecipitationIn,Events,Conditions,WindDirDegrees,DateUTC
12:51 AM,75.9,63.0,64,29.50,10.0,South,11.5,-,N/A,,Mostly Cloudy,170,2013-06-29 04:51:00
1:51 AM,73.9,64.9,73,29.50,10.0,SSW,6.9,-,N/A,,Mostly Cloudy,200,2013-06-29 05:51:00
2:51 AM,73.9,64.9,73,29.49,10.0,SSW,6.9,-,N/A,,Partly Cloudy,200,2013-06-29 06:51:00
3:51 AM,73.0,64.9,76,29.50,10.0,South,8.1,-,N/A,,Scattered Clouds,180,2013-06-29 07:51:00
4:51 AM,73.0,64.9,76,29.52,10.0,South,6.9,-,N/A,,Scattered Clouds,190,2013-06-29 08:51:00
5:51 AM,73.0,64.9,76,29.55,10.0,SSW,9.2,-,N/A,,Mostly Cloudy,200,2013-06-29 09:51:00
6:42 AM,73.4,66.2,78,29.56,10.0,South,10.4,-,N/A,,Mostly Cloudy,190,2013-06-29 10:42:00
6:51 AM,73.0,66.0,79,29.56,10.0,South,10.4,-,N/A,,Mostly Cloudy,190,2013-06-29 10:51:00
7:51 AM,73.0,64.9,76,29.57,10.0,SW,8.1,-,N/A,,Overcast,220,2013-06-29 11:51:00
8:51 AM,73.9,66.0,76,29.58,9.0,SSW,9.2,-,N/A,,Mostly Cloudy,200,2013-06-29 12:51:00
9:18 AM,75.2,66.2,73,29.59,10.0,SSW,10.4,-,N/A,,Mostly Cloudy,200,2013-06-29 13:18:00
9:48 AM,75.2,66.2,73,29.59,10.0,SSW,11.5,-,N/A,,Mostly Cloudy,200,2013-06-29 13:48:00
9:51 AM,75.9,66.0,71,29.60,10.0,SSW,9.2,-,N/A,,Mostly Cloudy,200,2013-06-29 13:51:00
10:20 AM,77.0,64.4,65,29.59,10.0,SSW,10.4,-,N/A,,Mostly Cloudy,200,2013-06-29 14:20:00
10:46 AM,78.8,64.4,61,29.59,10.0,SW,6.9,-,N/A,,Mostly Cloudy,220,2013-06-29 14:46:00
10:51 AM,78.1,64.0,62,29.60,10.0,WSW,9.2,-,N/A,,Mostly Cloudy,240,2013-06-29 14:51:00
11:01 AM,78.8,62.6,57,29.59,10.0,SW,5.8,-,N/A,,Mostly Cloudy,230,2013-06-29 15:01:00
11:51 AM,81.0,64.0,56,29.60,10.0,SSW,8.1,17.3,N/A,,Scattered Clouds,200,2013-06-29 15:51:00
12:51 PM,82.9,61.0,47,29.60,10.0,SSW,11.5,18.4,N/A,,Scattered Clouds,210,2013-06-29 16:51:00
1:51 PM,84.0,64.9,53,29.60,10.0,South,16.1,-,N/A,,Mostly Cloudy,170,2013-06-29 17:51:00
2:51 PM,82.0,66.0,58,29.60,10.0,South,18.4,25.3,N/A,,Scattered Clouds,170,2013-06-29 18:51:00
3:51 PM,84.0,64.9,53,29.61,10.0,SSE,18.4,-,N/A,,Scattered Clouds,160,2013-06-29 19:51:00
4:51 PM,82.9,64.0,53,29.62,10.0,SSE,16.1,25.3,N/A,,Mostly Cloudy,160,2013-06-29 20:51:00
5:51 PM,80.1,66.9,64,29.62,10.0,South,16.1,21.9,N/A,,Scattered Clouds,180,2013-06-29 21:51:00
6:51 PM,80.1,66.9,64,29.62,10.0,South,11.5,-,N/A,,Mostly Cloudy,170,2013-06-29 22:51:00
7:51 PM,77.0,68.0,74,29.64,10.0,South,11.5,-,N/A,,Mostly Cloudy,170,2013-06-29 23:51:00
8:51 PM,77.0,69.1,76,29.65,10.0,South,5.8,-,N/A,,Mostly Cloudy,180,2013-06-30 00:51:00
9:51 PM,79.0,69.1,72,29.68,10.0,South,5.8,-,N/A,,Mostly Cloudy,180,2013-06-30 01:51:00
10:51 PM,78.1,69.1,74,29.68,10.0,South,8.1,-,N/A,,Mostly Cloudy,180,2013-06-30 02:51:00
11:51 PM,78.1,70.0,76,29.69,10.0,South,6.9,-,N/A,,Mostly Cloudy,190,2013-06-30 03:51:00